Saint Francisville, IL

4:04 AM CDT on August 24, 2016 (GMT -0500)
Mount Carmel Municipal

Weather History for KAJG - July, 2013

Change the Weather History Date:

Wednesday, July 24, 2013

  Actual Average (KLWV) Record (KLWV)
Temperature  
Mean Temperature 70 °F 78 °F  
Max Temperature 77 °F 88 °F 105 °F (2012)
Min Temperature 62 °F 67 °F 56 °F (2014)
Degree Days  
Heating Degree Days 0 0  
Month to date heating degree days 0  
Since 1 June heating degree days 7  
Since 1 July heating degree days 0  
Cooling Degree Days 4 13  
Month to date cooling degree days 312  
Year to date cooling degree days 741  
Since 1 June cooling degree days 602  
Growing Degree Days 20 (Base 50)    
Moisture  
Dew Point 59 °F    
Average Humidity 67    
Maximum Humidity 83    
Minimum Humidity 47    
Precipitation  
Precipitation 0.00 in 0.14 in 0.83 in (2011)
Month to date precipitation 3.61  
Year to date precipitation 25.15  
Sea Level Pressure  
Sea Level Pressure 29.96 in    
Wind  
Wind Speed 7 mph (North)    
Max Wind Speed 12 mph    
Max Gust Speed 16 mph    
Visibility 10 miles    
Events      
T = Trace of Precipitation, MM = Missing Value Source: NWS Daily Summary

Daily Weather History Graph

Daily Weather History Graph

Search for Another Location

Airport or City:

Trip Planner

Search our weather history database for the weather conditions in past years. The results will help you decide how hot, cold, wet, or windy it might be!

Date:

Astronomy

Jul. 24, 2013 Rise Set
Actual Time 5:45 AM CDT 8:08 PM CDT
Civil Twilight 5:15 AM CDT 8:38 PM CDT
Nautical Twilight 4:38 AM CDT 9:15 PM CDT
Astronomical Twilight 3:57 AM CDT 9:56 PM CDT
Moon 9:16 PM CDT 8:03 AM CDT
Length of Visible Light 15h 22m
Length of Day
14h 22m
Waning Gibbous, 94% of the Moon is Illuminated
Jul 24
Waning Gibbous
Jul 29
Last Quarter
Aug 6
New
Aug 14
First Quarter
Aug 20
Full

Hourly Weather History & Observations

Time (CDT) Temp. Dew Point Humidity Pressure Visibility Wind Dir Wind Speed Gust Speed Precip Events Conditions
12:15 AM 73.4 °F 68.0 °F 83% 29.88 in 10.0 mi North 5.8 mph - N/A   Scattered Clouds
12:35 AM 73.4 °F 68.0 °F 83% 29.88 in 10.0 mi North 6.9 mph - N/A   Scattered Clouds
12:55 AM 73.4 °F 66.2 °F 78% 29.89 in 10.0 mi NNE 6.9 mph 16.1 mph N/A   Clear
1:15 AM 73.4 °F 66.2 °F 78% 29.89 in 10.0 mi NNE 8.1 mph - N/A   Clear
1:35 AM 71.6 °F 62.6 °F 73% 29.90 in 10.0 mi NE 9.2 mph - N/A   Scattered Clouds
1:55 AM 71.6 °F 64.4 °F 78% 29.89 in 10.0 mi NNE 5.8 mph - N/A   Scattered Clouds
2:15 AM 71.6 °F 62.6 °F 73% 29.90 in 10.0 mi NNE 5.8 mph - N/A   Mostly Cloudy
2:35 AM 69.8 °F 60.8 °F 73% 29.91 in 10.0 mi NNE 8.1 mph - N/A   Overcast
3:15 AM 69.8 °F 60.8 °F 73% 29.92 in 10.0 mi NNE 5.8 mph - N/A   Overcast
3:35 AM 68.0 °F 59.0 °F 73% 29.91 in 10.0 mi NNE 5.8 mph - N/A   Scattered Clouds
3:55 AM 68.0 °F 59.0 °F 73% 29.91 in 10.0 mi NNE 9.2 mph - N/A   Clear
4:15 AM 68.0 °F 59.0 °F 73% 29.91 in 10.0 mi NNE 6.9 mph - N/A   Clear
4:35 AM 66.2 °F 55.4 °F 68% 29.92 in 10.0 mi North 8.1 mph - N/A   Clear
4:55 AM 64.4 °F 55.4 °F 73% 29.93 in 10.0 mi North 5.8 mph - N/A   Clear
5:15 AM 64.4 °F 55.4 °F 73% 29.93 in 10.0 mi NNE 10.4 mph - N/A   Clear
5:35 AM 64.4 °F 55.4 °F 73% 29.94 in 10.0 mi North 5.8 mph - N/A   Clear
5:55 AM 62.6 °F 55.4 °F 77% 29.94 in 10.0 mi NNE 9.2 mph - N/A   Clear
6:15 AM 62.6 °F 55.4 °F 77% 29.94 in 10.0 mi NNE 4.6 mph - N/A   Clear
6:35 AM 62.6 °F 55.4 °F 77% 29.94 in 10.0 mi North 4.6 mph - N/A   Clear
6:55 AM 62.6 °F 55.4 °F 77% 29.94 in 10.0 mi North 3.5 mph - N/A   Clear
7:15 AM 64.4 °F 55.4 °F 73% 29.94 in 10.0 mi NNE 8.1 mph - N/A   Clear
7:35 AM 64.4 °F 55.4 °F 73% 29.95 in 10.0 mi NNE 6.9 mph - N/A   Clear
7:55 AM 64.4 °F 55.4 °F 73% 29.96 in 10.0 mi NE 8.1 mph - N/A   Clear
8:15 AM 66.2 °F 57.2 °F 73% 29.96 in 10.0 mi NE 8.1 mph - N/A   Clear
8:35 AM 66.2 °F 57.2 °F 73% 29.97 in 10.0 mi NE 9.2 mph - N/A   Clear
8:55 AM 68.0 °F 57.2 °F 68% 29.97 in 10.0 mi NE 9.2 mph - N/A   Clear
9:15 AM 68.0 °F 59.0 °F 73% 29.97 in 10.0 mi ENE 8.1 mph - N/A   Clear
9:35 AM 69.8 °F 59.0 °F 68% 29.97 in 10.0 mi NE 8.1 mph - N/A   Clear
9:55 AM 69.8 °F 59.0 °F 68% 29.97 in 10.0 mi North 8.1 mph - N/A   Clear
10:15 AM 69.8 °F 59.0 °F 68% 29.97 in 10.0 mi North 8.1 mph - N/A   Scattered Clouds
10:35 AM 71.6 °F 59.0 °F 64% 29.98 in 10.0 mi ENE 6.9 mph - N/A   Scattered Clouds
11:15 AM 71.6 °F 59.0 °F 64% 29.99 in 10.0 mi NE 8.1 mph - N/A   Clear
11:35 AM 71.6 °F 57.2 °F 60% 29.99 in 10.0 mi NNE 5.8 mph - N/A   Clear
11:55 AM 73.4 °F 59.0 °F 61% 29.99 in 10.0 mi North 6.9 mph - N/A   Clear
12:15 PM 73.4 °F 59.0 °F 61% 29.99 in 10.0 mi ENE 6.9 mph - N/A   Clear
12:35 PM 73.4 °F 59.0 °F 61% 29.99 in 10.0 mi NE 8.1 mph - N/A   Clear
12:55 PM 75.2 °F 59.0 °F 57% 29.98 in 10.0 mi NNE 6.9 mph - N/A   Scattered Clouds
1:15 PM 75.2 °F 59.0 °F 57% 29.98 in 10.0 mi North 3.5 mph - N/A   Scattered Clouds
1:35 PM 77.0 °F 59.0 °F 54% 29.98 in 10.0 mi NNW 6.9 mph - N/A   Scattered Clouds
1:55 PM 77.0 °F 57.2 °F 50% 29.99 in 10.0 mi NNE 4.6 mph - N/A   Clear
2:15 PM 77.0 °F 57.2 °F 50% 29.99 in 10.0 mi NNW 4.6 mph - N/A   Clear
2:35 PM 77.0 °F 59.0 °F 54% 29.98 in 10.0 mi North 5.8 mph - N/A   Scattered Clouds
2:55 PM 77.0 °F 55.4 °F 47% 29.99 in 10.0 mi North 3.5 mph - N/A   Scattered Clouds
3:15 PM 77.0 °F 55.4 °F 47% 29.98 in 10.0 mi North 4.6 mph - N/A   Clear
3:35 PM 77.0 °F 55.4 °F 47% 29.98 in 10.0 mi North 6.9 mph - N/A   Clear
3:55 PM 77.0 °F 57.2 °F 50% 29.97 in 10.0 mi North 9.2 mph - N/A   Clear
4:15 PM 77.0 °F 57.2 °F 50% 29.96 in 10.0 mi North 6.9 mph - N/A   Clear
4:35 PM 77.0 °F 57.2 °F 50% 29.96 in 10.0 mi North 8.1 mph - N/A   Clear
4:55 PM 77.0 °F 57.2 °F 50% 29.96 in 10.0 mi NNW 11.5 mph - N/A   Clear
5:15 PM 77.0 °F 57.2 °F 50% 29.96 in 10.0 mi North 8.1 mph - N/A   Clear
5:35 PM 77.0 °F 57.2 °F 50% 29.97 in 10.0 mi NNW 10.4 mph - N/A   Clear
5:55 PM 77.0 °F 57.2 °F 50% 29.97 in 10.0 mi North 6.9 mph - N/A   Clear
6:15 PM 77.0 °F 55.4 °F 47% 29.97 in 10.0 mi North 8.1 mph - N/A   Clear
6:35 PM 77.0 °F 55.4 °F 47% 29.98 in 10.0 mi North 8.1 mph - N/A   Clear
6:55 PM 75.2 °F 55.4 °F 50% 29.98 in 10.0 mi North 6.9 mph - N/A   Clear
7:15 PM 73.4 °F 55.4 °F 53% 29.98 in 10.0 mi North 8.1 mph - N/A   Clear
7:35 PM 73.4 °F 59.0 °F 61% 29.99 in 10.0 mi North 4.6 mph - N/A   Clear
7:55 PM 71.6 °F 59.0 °F 64% 29.99 in 10.0 mi North 5.8 mph - N/A   Clear
8:15 PM 69.8 °F 59.0 °F 68% 29.99 in 10.0 mi North 5.8 mph - N/A   Clear
8:35 PM 68.0 °F 60.8 °F 78% 29.99 in 10.0 mi North 4.6 mph - N/A   Clear
8:55 PM 68.0 °F 60.8 °F 78% 29.99 in 10.0 mi North 5.8 mph - N/A   Clear
9:15 PM 68.0 °F 60.8 °F 78% 29.99 in 10.0 mi North 5.8 mph - N/A   Clear
9:35 PM 68.0 °F 60.8 °F 78% 30.00 in 10.0 mi North 5.8 mph - N/A   Clear
9:55 PM 66.2 °F 60.8 °F 83% 30.01 in 10.0 mi North 5.8 mph - N/A   Clear
10:15 PM 66.2 °F 60.8 °F 83% 30.01 in 10.0 mi North 5.8 mph - N/A   Clear
10:35 PM 66.2 °F 60.8 °F 83% 30.01 in 10.0 mi North 6.9 mph - N/A   Clear
10:55 PM 66.2 °F 59.0 °F 78% 30.02 in 10.0 mi North 5.8 mph - N/A   Clear
11:15 PM 64.4 °F 59.0 °F 83% 30.02 in 10.0 mi North 6.9 mph - N/A   Clear
11:35 PM 64.4 °F 59.0 °F 83% 30.02 in 10.0 mi North 5.8 mph - N/A   Clear
11:55 PM 64.4 °F 59.0 °F 83% 30.02 in 10.0 mi North 5.8 mph - N/A   Clear